Preview of NWS' New Version of Forecast
This preview is not operational and should not be used for support decisions.

Regional Weather Roundup (RWR)

Issued by National Weather Service (NWS)

                            
000
ASUS42 KTBW 220516
RWRFL 
FLORIDA REGIONAL WEATHER ROUNDUP
NATIONAL WEATHER SERVICE TAMPA BAY RUSKIN FL
100 AM EDT WED MAY 22 2019

NOTE: "FAIR" INDICATES FEW OR NO CLOUDS BELOW 12,000 FEET WITH NO
SIGNIFICANT WEATHER AND/OR OBSTRUCTIONS TO VISIBILITY.

FLZ001>010-012>015-112-114-115-220600-
PANHANDLE FLORIDA
  
CITY           SKY/WX    TMP DP  RH WIND       PRES   REMARKS
PENSACOLA      FAIR      76  73  91 S10       29.95S                  
PENSACOLA NAS  FAIR      76  72  87 S12       29.95R                  
MILTON NAS     FAIR      70  69  97 SE3       29.96S                  
CRESTVIEW      FAIR      64  61  90 CALM      29.98R                  
DUKE FIELD     FAIR      68  68  98 S5        29.96S                  
VALPARAISO     FAIR      76  70  83 CALM      29.96S                  
MARY ESTHER    PTCLDY    76  69  80 S7        29.95S                  
PANAMA CITY    FAIR      66  63  90 CALM      29.96S                  
TYNDALL AFB    FAIR      68  65  90 SE3       29.97R                  
APALACHICOLA   FAIR      68  63  84 CALM      29.97S                  

STATION/POSITION SKY/WX   TEMP    WIND        PRES    WAVE   SWELL
                          AIR SEA DIR/SP/G            HT/PER HT/PER
                          (F)     (DEG/KT/KT) (MB)    (FT/S) (FT/S)
30.1N   87.6W                                   N/A     3/ 5
29.2N   88.2W                     140/ 14/ 17 1014.1
PANAMA CITY BEAC           78 82  210/  5/  6 1015.1S
TOWER C          NOT AVBL

$$
FLZ011-016>038-118-127-128-134-139-239-220600-
NORTH FLORIDA
  
CITY           SKY/WX    TMP DP  RH WIND       PRES   REMARKS
MARIANNA       FAIR      73  58  59 CALM      29.97R                  
TALLAHASSEE    FAIR      70  65  84 CALM      29.98R                  
PERRY          FAIR      73  72  94 CALM      29.99R                  
LIVE OAK       CLOUDY    75  68  78 CALM      29.98F                  
CROSS CITY     MOCLDY    73  71  94 CALM      30.00S                  
LAKE CITY      CLOUDY    77  68  73 SE6       30.00S                  
GAINESVILLE    FAIR      80  66  62 SE8       30.03S                  
WILLISTON      FAIR      76  68  76 CALM      30.00S                  
PALATKA        CLOUDY   N/A N/A N/A S5        30.02R                  
MAYPORT NAS    FAIR      78  71  79 S9        30.01R                  
JACKSONVILLE   FAIR      73  68  84 S6        30.00S                  
JAX NAS        FAIR      79  69  71 S13       30.02R                  
JAX CECIL      FAIR      70  66  88 CALM      30.02R                  
FERNANDINA BEA FAIR      77  71  79 S8        30.01R                  
ST AUGUSTINE   FAIR      77  72  84 S12       30.02R                  
PALM COAST     FAIR      73  69  89 S3        30.02S                  

STATION/POSITION SKY/WX   TEMP    WIND        PRES    WAVE   SWELL
                          AIR SEA DIR/SP/G            HT/PER HT/PER
                          (F)     (DEG/KT/KT) (MB)    (FT/S) (FT/S)
SHELL POINT      NOT AVBL
KEATON BEACH               74      50/  3/  4 1015.4R
CEDAR KEY                  79      40/  2/  3 1015.6F
FERNANDINA                        160/  7/ 11 1016.7R
30.7N   81.3W                 79                N/A     3/ 4
MAYPORT                    78 80  200/  5/  8 1016.4R
31.4N   80.9W              78 78  180/ 12/ 14 1015.8R   2/ 4   2/ 7
ST AUGUSTINE               79 81  160/ 18/ 21 1016.4R

$$
FLZ040-043>046-052-053-057-058-063-144-220600-
INTERIOR CENTRAL FLORIDA
  
CITY           SKY/WX    TMP DP  RH WIND       PRES   REMARKS
OCALA          FAIR      78  68  71 SE7       30.02R                  
LEESBURG       FAIR      78  69  73 SE8       30.03R                  
SANFORD        FAIR      77  70  79 S10       30.02S                  
ORLANDO EXEC   FAIR      76  69  79 SE10      30.03R                  
ORLANDO INTL   FAIR      74  68  81 SE6       30.03R                  
KISSIMMEE      FAIR      76  70  82 SE8       30.05R                  
WINTER HAVEN   FAIR      78  69  73 SE12      30.04R                  
BARTOW         FAIR      77  68  73 SE13G18   30.02S                  
SEBRING        FAIR      76  69  80 SE9       30.04R                  
OKEECHOBEE     FAIR      72  66  83 SE3       30.03S                  

$$
FLZ041-047-054-059-064-141-147-220600-
EAST CENTRAL FLORIDA
  
CITY           SKY/WX    TMP DP  RH WIND       PRES   REMARKS
DAYTONA BEACH  FAIR      74  72  93 VRB3      30.03R                  
DELAND         FAIR      73  70  88 SE7       30.02S                  
JFK SPACE CTR  FAIR      75  69  80 SE5       30.02S                  
CAPE CANAVERAL FAIR      76  60  57 SE10      30.02R                  
PATRICK AFB    FAIR      78  71  80 SE14      30.02S                  
MELBOURNE      FAIR      79  67  66 SE13      30.02S                  
VERO BEACH     FAIR      77  66  68 SE13      30.03S                  
FT PIERCE      FAIR      77  65  66 E12       30.03S                  
STUART         FAIR      77  63  61 E7        30.04S                  

STATION/POSITION SKY/WX   TEMP    WIND        PRES    WAVE   SWELL
                          AIR SEA DIR/SP/G            HT/PER HT/PER
                          (F)     (DEG/KT/KT) (MB)    (FT/S) (FT/S)
28.5N   80.2W              79     130/ 14/ 17 1017.2
28.9N   78.5W              78 79  130/ 10/ 12 1017.6R   2/ 8   2/ 8
TRIDENT PIER               77 83  120/  8/ 14 1018.1R
28.4N   80.5W                 80                N/A     2/ 4
27.5N   80.2W                 79                N/A     3/ 4

$$
FLZ050-056-061-142-242-148-248-149-249-151-251-155-255-
160-260-220600-
WEST CENTRAL FLORIDA
  
CITY           SKY/WX    TMP DP  RH WIND       PRES   REMARKS
CRYSTAL RIVER  FAIR      73  72  94 CALM      30.01S                  
INVERNESS      FAIR      79  73  83 SE7       30.02R                  
BROOKSVILLE    FAIR      75  69  81 E8        30.02R                  
CLEARWATER AIR MOCLDY    79  72  78 CALM      30.00R                  
ST PETE CLEARW CLOUDY    80  72  76 E9        30.00R                  
TAMPA INTL     MOCLDY    81  70  69 SE8       30.01R                  
TAMPA EXEC     CLOUDY    77  72  83 CALM      30.02S                  
PLANT CITY     CLOUDY    79  70  73 SE8       30.04R                  
MACDILL AFB    CLOUDY    80  71  75 E10       30.00S                  
PETER O KNIGHT CLOUDY    81  73  78 SE12      30.01S                  
ST PETERSBURG    N/A    N/A N/A N/A MISG      29.99R                  
SARASOTA       FAIR      78  72  81 E7        29.98S                  
VENICE         FAIR      79  72  78 E7        30.00S                  

STATION/POSITION SKY/WX   TEMP    WIND        PRES    WAVE   SWELL
                          AIR SEA DIR/SP/G            HT/PER HT/PER
                          (F)     (DEG/KT/KT) (MB)    (FT/S) (FT/S)
27.3N   84.2W                 79                N/A     1/ 8
CLEARWATER BEACH           81 86   70/  6/  8 1016.0R
MIDDLE TAMPA BAY           79     130/ 11/ 13 1015.9R
VENICE                     78 82   80/  5/  6 1015.6S

$$
FLZ066-069-070-075>078-162-262-165-265-220600-
SOUTHWEST FLORIDA AND KEYS
  
CITY           SKY/WX    TMP DP  RH WIND       PRES   REMARKS
PUNTA GORDA    FAIR      75  68  78 E8        30.02R                  
FT MYERS       CLOUDY    76  71  85 SE5       30.00R                  
SOUTHWEST INTL CLOUDY    75  71  87 E6        30.01R                  
NAPLES         MOCLDY    77  71  82 E8        30.00S                  
MARCO ISLAND   FAIR      77  72  84 E7        30.01S                  
IMMOKALEE      FAIR      75  70  83 SE5       30.00S                  
MARATHON       FAIR      83  70  64 E9G16     29.99S                  
KEY WEST NAS   FAIR      83  72  69 E14       29.98F                  
KEY WEST INTL  FAIR      81  72  74 SE16      29.99S                  

STATION/POSITION SKY/WX   TEMP    WIND        PRES    WAVE   SWELL
                          AIR SEA DIR/SP/G            HT/PER HT/PER
                          (F)     (DEG/KT/KT) (MB)    (FT/S) (FT/S)
NAPLES                                        1016.0S
DRY TORTUGAS               82     140/ 16/ 18 1015.1S
SAND KEY                   81                 1015.2F
SOMBRERO KEY               81                 1014.8F

$$
FLZ067-068-071>074-168-172>174-220600-
SOUTHEAST FLORIDA 
  
CITY           SKY/WX    TMP DP  RH WIND       PRES   REMARKS
W PALM BEACH   FAIR      80  65  59 E12       30.03S                  
FT LAUDER-EXEC FAIR      79  63  57 E7        30.01F                  
FT LAUDERDALE  FAIR      79  64  60 E10       30.01S                  
POMPANO BEACH  FAIR      80  64  58 E9        30.01F                  
PEMBROKE PINES FAIR      78  63  59 E5        30.03S                  
OPA LOCKA      FAIR      78  67  68 E7        30.02F                  
MIAMI          FAIR      80  67  64 E9        30.02S                  
WEST KENDALL   FAIR      76  66  71 E7        30.01F                  
HOMESTEAD      FAIR      79  67  66 E8        30.00F                  

STATION/POSITION SKY/WX   TEMP    WIND        PRES    WAVE   SWELL
                          AIR SEA DIR/SP/G            HT/PER HT/PER
                          (F)     (DEG/KT/KT) (MB)    (FT/S) (FT/S)
PORT EVERGLADES            81     100/  3/  8 1016.5F
VIRGINIA KEY               81 85   80/ 10/ 12 1015.9F
LAKE WORTH                 79 82              1017.6F
SETTLEMENT POINT           78     100/  7/ 10 1017.0F

$$